| time (UTC) | temp F | wind direction | speed MPH | gust MPH | rain 1hr in | rain 24hr in | rain mn in | humidity % | barometer mb |
| 20260906055543 | 72 | 267 | 0.0 | 1.0 | 0.00 | 0.40 | 0.00 | 99 | 1010.0 |
| 20260906055041 | 72 | 267 | 0.0 | 2.0 | 0.00 | 0.40 | 0.00 | 99 | 1010.1 |
| 20260906054540 | 72 | 254 | 0.0 | 2.0 | 0.00 | 0.40 | 0.00 | 99 | 1010.1 |
| 20260906054039 | 72 | 278 | 1.0 | 3.0 | 0.00 | 0.40 | 0.00 | 99 | 1010.1 |
| 20260906053538 | 72 | 256 | 0.0 | 3.0 | 0.00 | 0.40 | 0.00 | 99 | 1010.1 |
| 20260906053038 | 72 | 39 | 0.0 | 1.0 | 0.00 | 0.40 | 0.00 | 99 | 1010.3 |
| 20260906052541 | 72 | 39 | 0.0 | 1.0 | 0.00 | 0.40 | 0.00 | 99 | 1010.3 |
| 20260906052038 | 72 | 39 | 0.0 | 2.0 | 0.00 | 0.40 | 0.00 | 99 | 1010.3 |
| 20260906051542 | 72 | 39 | 0.0 | 3.0 | 0.00 | 0.40 | 0.00 | 99 | 1010.6 |
| 20260906051040 | 72 | 261 | 1.0 | 4.0 | 0.00 | 0.40 | 0.00 | 99 | 1010.5 |
| 20260906050537 | 72 | 268 | 1.0 | 4.0 | 0.00 | 0.40 | 0.00 | 99 | 1010.6 |
| 20260906045538 | 72 | 254 | 0.0 | 1.0 | 0.00 | 0.40 | 0.00 | 99 | 1010.7 |
| 20260906045036 | 72 | 254 | 0.0 | 1.0 | 0.00 | 0.40 | 0.00 | 99 | 1010.7 |
| 20260906044536 | 72 | 82 | 0.0 | 1.0 | 0.00 | 0.40 | 0.00 | 99 | 1010.8 |
| 20260906044035 | 72 | 82 | 0.0 | 1.0 | 0.00 | 0.40 | 0.00 | 99 | 1010.9 |
| 20260906043535 | 72 | 82 | 0.0 | 0.0 | 0.00 | 0.40 | 0.00 | 99 | 1010.9 |
| 20260906043036 | 72 | 82 | 0.0 | 1.0 | 0.00 | 0.40 | 0.00 | 99 | 1010.8 |
| 20260906042534 | 72 | 82 | 0.0 | 1.0 | 0.00 | 0.40 | 0.00 | 99 | 1010.7 |
| 20260906042034 | 72 | 82 | 0.0 | 1.0 | 0.00 | 0.40 | 0.00 | 99 | 1010.6 |
| 20260906041541 | 72 | 255 | 0.0 | 1.0 | 0.00 | 0.40 | 0.00 | 99 | 1010.6 |
| 20260906041032 | 72 | 255 | 0.0 | 1.0 | 0.00 | 0.40 | 0.00 | 99 | 1010.6 |
| 20260906040530 | 72 | 255 | 0.0 | 2.0 | 0.00 | 0.40 | 0.00 | 99 | 1010.3 |
| 20260906035530 | 72 | 258 | 0.0 | 2.0 | 0.00 | 0.40 | 0.40 | 99 | 1010.2 |
| 20260906035030 | 72 | 258 | 0.0 | 3.0 | 0.00 | 0.40 | 0.40 | 99 | 1010.3 |
| 20260906034533 | 72 | 229 | 1.0 | 3.0 | 0.00 | 0.40 | 0.40 | 99 | 1010.4 |
| 20260906034034 | 72 | 254 | 0.0 | 1.0 | 0.00 | 0.40 | 0.40 | 99 | 1010.3 |
| 20260906033529 | 72 | 256 | 0.0 | 1.0 | 0.00 | 0.40 | 0.40 | 99 | 1010.3 |
| 20260906033032 | 73 | 257 | 0.0 | 2.0 | 0.00 | 0.40 | 0.40 | 99 | 1010.5 |
| 20260906032528 | 73 | 257 | 0.0 | 2.0 | 0.00 | 0.40 | 0.40 | 99 | 1010.7 |
| 20260906032029 | 73 | 239 | 1.0 | 2.0 | 0.00 | 0.40 | 0.40 | 99 | 1010.8 |
| 20260906031530 | 73 | 247 | 0.0 | 5.0 | 0.00 | 0.40 | 0.40 | 99 | 1010.9 |
| 20260906031033 | 73 | 231 | 1.0 | 3.0 | 0.00 | 0.40 | 0.40 | 99 | 1011.1 |
| 20260906030529 | 72 | 264 | 0.0 | 2.0 | 0.00 | 0.40 | 0.40 | 99 | 1011.1 |
| 20260906025529 | 72 | 248 | 1.0 | 4.0 | 0.00 | 0.40 | 0.40 | 99 | 1011.3 |
| 20260906025029 | 72 | 257 | 1.0 | 3.0 | 0.00 | 0.40 | 0.40 | 99 | 1011.2 |
| 20260906024531 | 72 | 295 | 0.0 | 1.0 | 0.00 | 0.40 | 0.40 | 99 | 1010.9 |
| 20260906024029 | 72 | 295 | 0.0 | 1.0 | 0.00 | 0.40 | 0.40 | 99 | 1010.7 |
| 20260906023529 | 72 | 268 | 0.0 | 2.0 | 0.00 | 0.40 | 0.40 | 99 | 1010.6 |
| 20260906023032 | 72 | 245 | 0.0 | 2.0 | 0.00 | 0.40 | 0.40 | 99 | 1010.7 |
| 20260906022528 | 72 | 65 | 0.0 | 2.0 | 0.00 | 0.40 | 0.40 | 99 | 1010.8 |
| 20260906022032 | 72 | 65 | 0.0 | 1.0 | 0.00 | 0.40 | 0.40 | 99 | 1010.7 |
| 20260906021528 | 71 | 65 | 0.0 | 0.0 | 0.00 | 0.40 | 0.40 | 99 | 1010.9 |
| 20260906021027 | 71 | 65 | 0.0 | 0.0 | 0.00 | 0.40 | 0.40 | 99 | 1010.9 |
| 20260906020529 | 71 | 65 | 0.0 | 1.0 | 0.00 | 0.40 | 0.40 | 99 | 1010.7 |
| 20260906015530 | 71 | 65 | 0.0 | 1.0 | 0.00 | 0.40 | 0.40 | 99 | 1010.8 |
| 20260906015029 | 71 | 65 | 0.0 | 1.0 | 0.00 | 0.40 | 0.40 | 99 | 1010.7 |
| 20260906014534 | 71 | 65 | 0.0 | 1.0 | 0.00 | 0.40 | 0.40 | 99 | 1010.7 |
| 20260906014031 | 71 | 65 | 0.0 | 1.0 | 0.00 | 0.40 | 0.40 | 99 | 1010.8 |
| 20260906013527 | 71 | 65 | 0.0 | 3.0 | 0.00 | 0.40 | 0.40 | 99 | 1010.7 |
| 20260906013027 | 71 | 110 | 1.0 | 3.0 | 0.00 | 0.40 | 0.40 | 99 | 1010.8 |
| 20260906012527 | 71 | 23 | 0.0 | 1.0 | 0.00 | 0.40 | 0.40 | 99 | 1010.6 |
| 20260906012031 | 71 | 23 | 0.0 | 2.0 | 0.00 | 0.40 | 0.40 | 98 | 1010.5 |
| 20260906011527 | 71 | 23 | 1.0 | 2.0 | 0.00 | 0.40 | 0.40 | 98 | 1010.3 |
| 20260906011027 | 71 | 328 | 0.0 | 1.0 | 0.00 | 0.40 | 0.40 | 99 | 1010.1 |
| 20260906010526 | 71 | 305 | 0.0 | 1.0 | 0.00 | 0.40 | 0.40 | 99 | 1009.8 |
| 20260906005526 | 71 | 305 | 0.0 | 0.0 | 0.00 | 0.40 | 0.40 | 98 | 1009.3 |
| 20260906005029 | 71 | 305 | 0.0 | 1.0 | 0.00 | 0.40 | 0.40 | 98 | 1009.1 |
| 20260906004527 | 71 | 305 | 0.0 | 2.0 | 0.00 | 0.40 | 0.40 | 98 | 1009.0 |
| 20260906004027 | 71 | 6 | 0.0 | 2.0 | 0.00 | 0.40 | 0.40 | 98 | 1009.0 |
| 20260906003526 | 71 | 283 | 0.0 | 2.0 | 0.00 | 0.40 | 0.40 | 98 | 1008.8 |
| 20260906003026 | 71 | 283 | 0.0 | 4.0 | 0.00 | 0.40 | 0.40 | 98 | 1008.7 |
| 20260906002525 | 71 | 252 | 1.0 | 4.0 | 0.01 | 0.40 | 0.40 | 98 | 1008.6 |
| 20260906002026 | 71 | 253 | 1.0 | 4.0 | 0.01 | 0.40 | 0.40 | 98 | 1008.5 |
| 20260906001525 | 71 | 251 | 2.0 | 4.0 | 0.02 | 0.40 | 0.40 | 98 | 1008.7 |
| 20260906001027 | 71 | 250 | 2.0 | 4.0 | 0.03 | 0.40 | 0.40 | 98 | 1008.7 |
| 20260906000530 | 71 | 238 | 2.0 | 4.0 | 0.03 | 0.40 | 0.40 | 98 | 1008.8 |
| 20260905235524 | 72 | 261 | 1.0 | 3.0 | 0.03 | 0.41 | 0.40 | 98 | 1008.9 |
| 20260905235024 | 72 | 51 | 0.0 | 0.0 | 0.03 | 0.41 | 0.40 | 98 | 1008.9 |
| 20260905234524 | 72 | 51 | 0.0 | 0.0 | 0.03 | 0.41 | 0.40 | 98 | 1009.1 |
| 20260905234028 | 72 | 51 | 0.0 | 0.0 | 0.03 | 0.41 | 0.40 | 98 | 1009.1 |
| 20260905233524 | 72 | 51 | 0.0 | 0.0 | 0.03 | 0.41 | 0.40 | 98 | 1009.6 |
| 20260905233024 | 71 | 51 | 0.0 | 0.0 | 0.03 | 0.41 | 0.40 | 98 | 1010.1 |
| 20260905232526 | 71 | 51 | 0.0 | 2.0 | 0.03 | 0.41 | 0.40 | 97 | 1010.3 |
| 20260905232023 | 72 | 51 | 0.0 | 2.0 | 0.02 | 0.40 | 0.39 | 97 | 1010.9 |
| 20260905231524 | 71 | 51 | 0.0 | 7.0 | 0.01 | 0.39 | 0.38 | 97 | 1011.3 |
| 20260905231023 | 71 | 51 | 2.0 | 8.0 | 0.00 | 0.38 | 0.37 | 98 | 1011.2 |
| 20260905230529 | 71 | 29 | 5.0 | 9.0 | 0.00 | 0.38 | 0.37 | 98 | 1010.7 |
| 20260905225522 | 70 | 54 | 1.0 | 5.0 | 0.00 | 0.38 | 0.37 | 97 | 1010.8 |
| 20260905225022 | 70 | 230 | 0.0 | 2.0 | 0.00 | 0.38 | 0.37 | 97 | 1010.1 |
| 20260905224522 | 70 | 263 | 0.0 | 3.0 | 0.00 | 0.38 | 0.37 | 97 | 1009.3 |
| 20260905224022 | 70 | 253 | 0.0 | 3.0 | 0.00 | 0.38 | 0.37 | 97 | 1009.2 |
| 20260905223525 | 70 | 224 | 1.0 | 2.0 | 0.00 | 0.38 | 0.37 | 97 | 1009.2 |
| 20260905223022 | 70 | 278 | 0.0 | 1.0 | 0.01 | 0.38 | 0.37 | 97 | 1009.1 |
| 20260905222526 | 70 | 289 | 0.0 | 1.0 | 0.02 | 0.38 | 0.37 | 97 | 1009.0 |
| 20260905222022 | 70 | 265 | 0.0 | 1.0 | 0.02 | 0.38 | 0.37 | 96 | 1009.0 |
| 20260905221532 | 70 | 265 | 0.0 | 2.0 | 0.03 | 0.38 | 0.37 | 96 | 1009.0 |
| 20260905221021 | 71 | 264 | 1.0 | 2.0 | 0.03 | 0.38 | 0.37 | 96 | 1009.3 |
| 20260905220520 | 71 | 266 | 0.0 | 4.0 | 0.04 | 0.38 | 0.37 | 95 | 1009.5 |
| 20260905215519 | 71 | 297 | 1.0 | 4.0 | 0.04 | 0.38 | 0.37 | 95 | 1009.8 |
| 20260905215018 | 71 | 283 | 2.0 | 4.0 | 0.04 | 0.38 | 0.37 | 95 | 1009.8 |
| 20260905214519 | 71 | 259 | 0.0 | 5.0 | 0.05 | 0.38 | 0.37 | 95 | 1009.6 |
| 20260905214017 | 72 | 283 | 2.0 | 6.0 | 0.09 | 0.38 | 0.37 | 95 | 1009.6 |
| 20260905213516 | 72 | 280 | 0.0 | 6.0 | 0.12 | 0.38 | 0.37 | 96 | 1009.3 |
| 20260905213019 | 72 | 285 | 1.0 | 6.0 | 0.15 | 0.38 | 0.37 | 95 | 1009.3 |
| 20260905212514 | 73 | 359 | 0.0 | 5.0 | 0.18 | 0.37 | 0.36 | 95 | 1009.8 |
| 20260905212012 | 74 | 194 | 2.0 | 5.0 | 0.25 | 0.36 | 0.35 | 96 | 1009.6 |
| 20260905211513 | 74 | 262 | 3.0 | 5.0 | 0.27 | 0.36 | 0.35 | 96 | 1009.4 |
| 20260905211012 | 75 | 246 | 0.0 | 4.0 | 0.31 | 0.35 | 0.34 | 96 | 1009.2 |
| 20260905210514 | 75 | 290 | 2.0 | 4.0 | 0.32 | 0.35 | 0.34 | 96 | 1009.1 |
| 20260905205511 | 75 | 35 | 0.0 | 7.0 | 0.31 | 0.34 | 0.33 | 95 | 1009.5 |
| 20260905205016 | 75 | 304 | 1.0 | 10.0 | 0.31 | 0.34 | 0.33 | 94 | 1009.8 |
| 20260905204511 | 76 | 248 | 2.0 | 10.0 | 0.31 | 0.34 | 0.33 | 93 | 1009.9 |
| 20260905204010 | 77 | 256 | 3.0 | 7.0 | 0.28 | 0.31 | 0.30 | 93 | 1009.3 |
| 20260905203511 | 77 | 162 | 1.0 | 9.0 | 0.25 | 0.28 | 0.27 | 92 | 1009.5 |
| 20260905203012 | 79 | 53 | 3.0 | 9.0 | 0.22 | 0.25 | 0.24 | 91 | 1010.0 |
| 20260905202510 | 80 | 84 | 0.0 | 5.0 | 0.18 | 0.21 | 0.20 | 92 | 1009.3 |
| 20260905202009 | 80 | 141 | 2.0 | 12.0 | 0.11 | 0.14 | 0.13 | 90 | 1009.0 |
| 20260905201516 | 82 | 94 | 2.0 | 12.0 | 0.07 | 0.10 | 0.09 | 89 | 1009.0 |
| 20260905201008 | 84 | 51 | 3.0 | 8.0 | 0.03 | 0.06 | 0.05 | 90 | 1008.5 |
| 20260905200508 | 85 | 79 | 5.0 | 0.0 | 0.00 | 0.00 | 0.03 | 89 | 1007.8 |
| 20260905195507 | 87 | 53 | 4.0 | 9.0 | 0.00 | 0.03 | 0.02 | 86 | 1008.0 |
| 20260905195007 | 88 | 63 | 2.0 | 4.0 | 0.00 | 0.03 | 0.02 | 85 | 1007.8 |
| 20260905194506 | 89 | 101 | 0.0 | 4.0 | 0.00 | 0.03 | 0.02 | 83 | 1008.0 |
| 20260905194006 | 90 | 70 | 1.0 | 4.0 | 0.00 | 0.03 | 0.02 | 82 | 1008.3 |
| 20260905193506 | 91 | 128 | 1.0 | 7.0 | 0.00 | 0.03 | 0.02 | 81 | 1008.3 |
| 20260905193009 | 92 | 133 | 3.0 | 7.0 | 0.00 | 0.03 | 0.02 | 81 | 1008.2 |
| 20260905192506 | 92 | 94 | 2.0 | 6.0 | 0.00 | 0.03 | 0.02 | 81 | 1008.5 |
| 20260905192005 | 91 | 93 | 2.0 | 4.0 | 0.00 | 0.03 | 0.02 | 80 | 1008.5 |
| 20260905191503 | 90 | 107 | 1.0 | 4.0 | 0.00 | 0.03 | 0.02 | 84 | 1008.5 |
| 20260905191001 | 90 | 85 | 1.0 | 4.0 | 0.00 | 0.03 | 0.02 | 84 | 1008.7 |
| 20260905190600 | 90 | 79 | 1.0 | 4.0 | 0.00 | 0.03 | 0.02 | 83 | 1008.9 |
| 20260905185601 | 90 | 51 | 1.0 | 6.0 | 0.01 | 0.03 | 0.02 | 83 | 1009.0 |
| 20260905185102 | 90 | 90 | 1.0 | 3.0 | 0.01 | 0.03 | 0.02 | 84 | 1009.1 |
| 20260905184619 | 90 | 100 | 1.0 | 3.0 | 0.01 | 0.03 | 0.02 | 82 | 1009.2 |
| 20260905184101 | 91 | 116 | 1.0 | 3.0 | 0.01 | 0.03 | 0.02 | 81 | 1009.2 |
| 20260905183601 | 91 | 252 | 0.0 | 4.0 | 0.01 | 0.03 | 0.02 | 80 | 1009.3 |
| 20260905183058 | 91 | 106 | 1.0 | 4.0 | 0.01 | 0.03 | 0.02 | 79 | 1009.4 |
| 20260905182556 | 91 | 73 | 0.0 | 2.0 | 0.01 | 0.03 | 0.02 | 79 | 1009.5 |
| 20260905182058 | 91 | 73 | 1.0 | 3.0 | 0.01 | 0.03 | 0.02 | 77 | 1009.6 |
| 20260905181555 | 91 | 56 | 1.0 | 3.0 | 0.01 | 0.03 | 0.02 | 75 | 1009.6 |
| 20260905181054 | 93 | 45 | 1.0 | 4.0 | 0.01 | 0.03 | 0.02 | 74 | 1009.6 |
| 20260905180554 | 94 | 72 | 1.0 | 3.0 | 0.01 | 0.03 | 0.02 | 72 | 1009.7 |
| 20260905180155 | 92 | 20 | 1.0 | 5.0 | 0.01 | 0.03 | 0.02 | 73 | 1009.6 |
| 20260905175552 | 92 | 4 | 1.0 | 5.0 | 0.00 | 0.02 | 0.01 | 75 | 1009.7 |
| 20260905175051 | 92 | 337 | 2.0 | 5.0 | 0.00 | 0.02 | 0.01 | 75 | 1009.7 |
| 20260905174556 | 92 | 54 | 1.0 | 5.0 | 0.00 | 0.02 | 0.01 | 75 | 1009.7 |
| 20260905174051 | 92 | 60 | 2.0 | 5.0 | 0.00 | 0.02 | 0.01 | 73 | 1009.8 |
| 20260905173549 | 92 | 237 | 2.0 | 5.0 | 0.00 | 0.02 | 0.01 | 76 | 1009.9 |
| 20260905173048 | 93 | 55 | 2.0 | 4.0 | 0.00 | 0.02 | 0.01 | 73 | 1009.9 |
| 20260905172547 | 93 | 231 | 0.0 | 3.0 | 0.00 | 0.02 | 0.01 | 75 | 1009.9 |
| 20260905172051 | 92 | 359 | 1.0 | 3.0 | 0.00 | 0.02 | 0.01 | 74 | 1010.0 |
| 20260905171547 | 92 | 37 | 0.0 | 5.0 | 0.00 | 0.02 | 0.01 | 74 | 1010.0 |
| 20260905171047 | 92 | 210 | 2.0 | 7.0 | 0.00 | 0.02 | 0.01 | 75 | 1010.0 |
| 20260905170546 | 92 | 267 | 2.0 | 7.0 | 0.00 | 0.02 | 0.01 | 75 | 1010.1 |
| 20260905165543 | 91 | 6 | 2.0 | 6.0 | 0.00 | 0.02 | 0.01 | 75 | 1010.4 |
| 20260905165044 | 91 | 347 | 2.0 | 8.0 | 0.00 | 0.02 | 0.01 | 78 | 1010.5 |
| 20260905164542 | 91 | 23 | 4.0 | 8.0 | 0.00 | 0.02 | 0.01 | 77 | 1010.6 |
| 20260905164040 | 91 | 63 | 1.0 | 7.0 | 0.00 | 0.02 | 0.01 | 78 | 1010.7 |
| 20260905163541 | 92 | 49 | 3.0 | 7.0 | 0.00 | 0.02 | 0.01 | 77 | 1010.7 |
| 20260905163040 | 91 | 8 | 1.0 | 5.0 | 0.00 | 0.02 | 0.01 | 76 | 1010.7 |
| 20260905162539 | 90 | 210 | 1.0 | 7.0 | 0.00 | 0.02 | 0.01 | 78 | 1010.9 |
| 20260905162039 | 90 | 4 | 4.0 | 8.0 | 0.00 | 0.02 | 0.01 | 78 | 1010.9 |
| 20260905161538 | 91 | 37 | 3.0 | 10.0 | 0.00 | 0.02 | 0.01 | 77 | 1011.0 |
| 20260905161039 | 91 | 43 | 4.0 | 10.0 | 0.00 | 0.02 | 0.01 | 76 | 1011.1 |
| 20260905160537 | 91 | 250 | 2.0 | 6.0 | 0.00 | 0.02 | 0.01 | 74 | 1011.2 |
| 20260905160037 | 91 | 350 | 1.0 | 5.0 | 0.00 | 0.02 | 0.01 | 74 | 1011.2 |
| 20260905155535 | 92 | 234 | 1.0 | 5.0 | 0.00 | 0.02 | 0.01 | 74 | 1011.2 |
| 20260905155036 | 92 | 78 | 1.0 | 7.0 | 0.00 | 0.02 | 0.01 | 75 | 1011.2 |
| 20260905154537 | 92 | 213 | 3.0 | 7.0 | 0.00 | 0.02 | 0.01 | 73 | 1011.2 |
| 20260905154035 | 92 | 285 | 1.0 | 5.0 | 0.00 | 0.02 | 0.01 | 74 | 1011.2 |
| 20260905153534 | 92 | 258 | 0.0 | 5.0 | 0.00 | 0.02 | 0.01 | 75 | 1011.2 |
| 20260905153133 | 91 | 7 | 1.0 | 7.0 | 0.00 | 0.02 | 0.01 | 77 | 1011.3 |
| 20260905152531 | 91 | 6 | 2.0 | 7.0 | 0.00 | 0.02 | 0.01 | 76 | 1011.3 |
| 20260905152030 | 91 | 51 | 1.0 | 6.0 | 0.00 | 0.02 | 0.01 | 77 | 1011.2 |
| 20260905151529 | 90 | 233 | 1.0 | 6.0 | 0.00 | 0.02 | 0.01 | 76 | 1011.3 |
| 20260905151036 | 90 | 65 | 1.0 | 9.0 | 0.00 | 0.02 | 0.01 | 77 | 1011.4 |
| 20260905150528 | 90 | 244 | 2.0 | 9.0 | 0.00 | 0.02 | 0.01 | 78 | 1011.3 |
| 20260905150028 | 90 | 266 | 1.0 | 11.0 | 0.00 | 0.02 | 0.01 | 77 | 1011.2 |
| 20260905145528 | 90 | 258 | 4.0 | 11.0 | 0.00 | 0.02 | 0.01 | 77 | 1011.3 |
| 20260905145024 | 90 | 71 | 2.0 | 6.0 | 0.00 | 0.02 | 0.01 | 77 | 1011.3 |
| 20260905144525 | 89 | 246 | 2.0 | 6.0 | 0.00 | 0.02 | 0.01 | 77 | 1011.3 |
| 20260905144023 | 89 | 333 | 2.0 | 7.0 | 0.00 | 0.02 | 0.01 | 79 | 1011.3 |
| 20260905143524 | 89 | 264 | 3.0 | 8.0 | 0.00 | 0.02 | 0.01 | 77 | 1011.4 |
| 20260905143125 | 89 | 248 | 2.0 | 6.0 | 0.00 | 0.02 | 0.01 | 79 | 1011.3 |
| 20260905142524 | 89 | 243 | 0.0 | 5.0 | 0.00 | 0.02 | 0.01 | 79 | 1011.3 |
| 20260905142023 | 89 | 240 | 2.0 | 5.0 | 0.00 | 0.02 | 0.01 | 79 | 1011.4 |
| 20260905141522 | 89 | 181 | 0.0 | 5.0 | 0.00 | 0.02 | 0.01 | 80 | 1011.4 |
| 20260905141021 | 88 | 264 | 0.0 | 6.0 | 0.00 | 0.02 | 0.01 | 81 | 1011.4 |
| 20260905140521 | 88 | 222 | 3.0 | 6.0 | 0.00 | 0.02 | 0.01 | 80 | 1011.4 |
| 20260905140020 | 88 | 351 | 1.0 | 6.0 | 0.00 | 0.02 | 0.01 | 80 | 1011.4 |
| 20260905135519 | 88 | 261 | 0.0 | 5.0 | 0.00 | 0.02 | 0.01 | 82 | 1011.3 |
| 20260905135018 | 87 | 243 | 1.0 | 5.0 | 0.00 | 0.02 | 0.01 | 83 | 1011.4 |
| 20260905134519 | 87 | 248 | 0.0 | 3.0 | 0.00 | 0.02 | 0.01 | 83 | 1011.4 |
| 20260905134015 | 87 | 254 | 1.0 | 5.0 | 0.00 | 0.02 | 0.01 | 84 | 1011.4 |
| 20260905133513 | 86 | 244 | 1.0 | 5.0 | 0.00 | 0.02 | 0.01 | 84 | 1011.3 |
| 20260905133112 | 86 | 232 | 1.0 | 7.0 | 0.00 | 0.02 | 0.01 | 85 | 1011.4 |
| 20260905132511 | 85 | 218 | 1.0 | 7.0 | 0.00 | 0.02 | 0.01 | 86 | 1011.4 |
| 20260905132010 | 85 | 286 | 3.0 | 7.0 | 0.00 | 0.02 | 0.01 | 86 | 1011.4 |
| 20260905131516 | 85 | 264 | 1.0 | 5.0 | 0.00 | 0.02 | 0.01 | 87 | 1011.4 |
| 20260905131011 | 84 | 269 | 0.0 | 6.0 | 0.00 | 0.02 | 0.01 | 88 | 1011.4 |
| 20260905130507 | 83 | 265 | 2.0 | 6.0 | 0.00 | 0.02 | 0.01 | 88 | 1011.5 |
| 20260905130004 | 83 | 63 | 1.0 | 3.0 | 0.00 | 0.02 | 0.01 | 90 | 1011.5 |
| 20260905125504 | 82 | 250 | 1.0 | 4.0 | 0.00 | 0.02 | 0.01 | 90 | 1011.5 |
| 20260905125005 | 82 | 248 | 1.0 | 4.0 | 0.00 | 0.02 | 0.01 | 91 | 1011.5 |
| 20260905124502 | 81 | 257 | 0.0 | 5.0 | 0.00 | 0.02 | 0.01 | 93 | 1011.5 |
| 20260905124059 | 80 | 263 | 1.0 | 7.0 | 0.00 | 0.02 | 0.01 | 93 | 1011.4 |
| 20260905123558 | 80 | 255 | 1.0 | 7.0 | 0.00 | 0.02 | 0.01 | 94 | 1011.5 |
| 20260905123108 | 79 | 258 | 1.0 | 5.0 | 0.00 | 0.02 | 0.01 | 94 | 1011.5 |
| 20260905122601 | 79 | 261 | 1.0 | 5.0 | 0.00 | 0.02 | 0.01 | 95 | 1011.5 |
| 20260905122059 | 79 | 259 | 1.0 | 5.0 | 0.00 | 0.02 | 0.01 | 94 | 1011.5 |
| 20260905121559 | 79 | 286 | 1.0 | 6.0 | 0.00 | 0.02 | 0.01 | 94 | 1011.4 |
| 20260905121059 | 79 | 237 | 2.0 | 7.0 | 0.00 | 0.02 | 0.01 | 94 | 1011.4 |
| 20260905120559 | 79 | 278 | 3.0 | 8.0 | 0.00 | 0.02 | 0.01 | 94 | 1011.5 |
| 20260905120058 | 79 | 280 | 2.0 | 8.0 | 0.00 | 0.02 | 0.01 | 95 | 1011.5 |
| 20260905115556 | 78 | 257 | 2.0 | 5.0 | 0.00 | 0.02 | 0.01 | 95 | 1011.4 |
| 20260905115056 | 78 | 239 | 2.0 | 0.0 | 0.00 | 0.00 | 0.01 | 96 | 1011.5 |
| 20260905114554 | 77 | 247 | 2.0 | 4.0 | 0.00 | 0.02 | 0.01 | 97 | 1011.4 |
| 20260905114053 | 77 | 243 | 0.0 | 3.0 | 0.01 | 0.02 | 0.01 | 97 | 1011.4 |
| 20260905113552 | 76 | 243 | 1.0 | 3.0 | 0.01 | 0.02 | 0.01 | 98 | 1011.4 |
| 20260905113100 | 75 | 246 | 1.0 | 4.0 | 0.01 | 0.02 | 0.01 | 98 | 1011.4 |
| 20260905112552 | 75 | 255 | 0.0 | 4.0 | 0.01 | 0.02 | 0.01 | 98 | 1011.4 |
| 20260905112054 | 75 | 252 | 0.0 | 4.0 | 0.01 | 0.02 | 0.01 | 98 | 1011.3 |
| 20260905111557 | 75 | 281 | 0.0 | 4.0 | 0.01 | 0.02 | 0.01 | 98 | 1011.3 |
| 20260905111052 | 75 | 252 | 0.0 | 4.0 | 0.01 | 0.02 | 0.01 | 98 | 1011.1 |
| 20260905110550 | 74 | 253 | 0.0 | 3.0 | 0.01 | 0.02 | 0.01 | 98 | 1011.1 |
| 20260905110050 | 74 | 258 | 0.0 | 2.0 | 0.01 | 0.02 | 0.01 | 98 | 1011.2 |
| 20260905105550 | 74 | 248 | 0.0 | 2.0 | 0.01 | 0.02 | 0.01 | 98 | 1011.2 |
| 20260905105050 | 74 | 236 | 0.0 | 1.0 | 0.01 | 0.02 | 0.01 | 98 | 1011.1 |
| 20260905104550 | 74 | 236 | 0.0 | 1.0 | 0.01 | 0.02 | 0.01 | 97 | 1011.1 |
| 20260905104052 | 74 | 236 | 0.0 | 1.0 | 0.00 | 0.01 | 0.00 | 97 | 1011.2 |
| 20260905103550 | 74 | 236 | 0.0 | 1.0 | 0.00 | 0.01 | 0.00 | 97 | 1011.2 |
| 20260905103050 | 74 | 236 | 0.0 | 2.0 | 0.00 | 0.01 | 0.00 | 97 | 1011.0 |
| 20260905102549 | 74 | 236 | 0.0 | 2.0 | 0.00 | 0.01 | 0.00 | 97 | 1011.1 |
| 20260905102050 | 74 | 252 | 0.0 | 1.0 | 0.00 | 0.01 | 0.00 | 97 | 1011.0 |
| 20260905101604 | 74 | 288 | 0.0 | 1.0 | 0.00 | 0.01 | 0.00 | 97 | 1010.9 |
| 20260905101052 | 74 | 288 | 0.0 | 2.0 | 0.00 | 0.01 | 0.00 | 97 | 1010.9 |
| 20260905100550 | 74 | 288 | 0.0 | 2.0 | 0.00 | 0.01 | 0.00 | 97 | 1010.8 |
| 20260905100049 | 74 | 264 | 0.0 | 4.0 | 0.00 | 0.01 | 0.00 | 97 | 1010.9 |
| 20260905095548 | 74 | 248 | 1.0 | 4.0 | 0.00 | 0.02 | 0.00 | 97 | 1010.8 |
| 20260905095049 | 74 | 260 | 1.0 | 4.0 | 0.00 | 0.02 | 0.00 | 97 | 1010.8 |
| 20260905094550 | 74 | 269 | 0.0 | 2.0 | 0.00 | 0.02 | 0.00 | 97 | 1010.8 |
| 20260905094048 | 74 | 269 | 0.0 | 4.0 | 0.00 | 0.02 | 0.00 | 97 | 1010.8 |
| 20260905093548 | 74 | 231 | 1.0 | 4.0 | 0.00 | 0.02 | 0.00 | 97 | 1010.8 |
| 20260905093048 | 74 | 285 | 0.0 | 3.0 | 0.00 | 0.02 | 0.00 | 96 | 1010.8 |
| 20260905092545 | 74 | 286 | 0.0 | 3.0 | 0.00 | 0.02 | 0.00 | 96 | 1010.8 |
| 20260905092045 | 74 | 266 | 0.0 | 2.0 | 0.00 | 0.02 | 0.00 | 96 | 1010.9 |
| 20260905091547 | 74 | 266 | 0.0 | 3.0 | 0.00 | 0.02 | 0.00 | 96 | 1010.9 |
| 20260905091048 | 74 | 269 | 0.0 | 3.0 | 0.00 | 0.02 | 0.00 | 96 | 1010.9 |
| 20260905090546 | 74 | 273 | 0.0 | 3.0 | 0.00 | 0.02 | 0.00 | 96 | 1011.0 |
| 20260905090045 | 74 | 248 | 0.0 | 2.0 | 0.00 | 0.02 | 0.00 | 96 | 1011.0 |
| 20260905085544 | 74 | 219 | 0.0 | 2.0 | 0.00 | 0.02 | 0.00 | 95 | 1011.1 |
| 20260905085043 | 75 | 219 | 0.0 | 2.0 | 0.00 | 0.02 | 0.00 | 95 | 1011.0 |
| 20260905084600 | 75 | 266 | 0.0 | 1.0 | 0.00 | 0.02 | 0.00 | 95 | 1011.0 |
| 20260905084042 | 75 | 266 | 0.0 | 2.0 | 0.00 | 0.02 | 0.00 | 95 | 1011.0 |
| 20260905083542 | 75 | 266 | 0.0 | 2.0 | 0.00 | 0.02 | 0.00 | 95 | 1011.0 |
| 20260905083042 | 75 | 256 | 0.0 | 3.0 | 0.00 | 0.02 | 0.00 | 94 | 1011.1 |
| 20260905082542 | 75 | 256 | 0.0 | 3.0 | 0.00 | 0.02 | 0.00 | 94 | 1011.1 |
| 20260905082042 | 75 | 263 | 0.0 | 3.0 | 0.00 | 0.02 | 0.00 | 94 | 1011.0 |
| 20260905081541 | 75 | 260 | 1.0 | 4.0 | 0.00 | 0.02 | 0.00 | 94 | 1011.1 |
| 20260905081041 | 75 | 262 | 2.0 | 4.0 | 0.00 | 0.02 | 0.00 | 94 | 1011.0 |
| 20260905080540 | 75 | 245 | 1.0 | 4.0 | 0.00 | 0.02 | 0.00 | 94 | 1011.1 |
| 20260905080041 | 75 | 257 | 2.0 | 4.0 | 0.00 | 0.02 | 0.00 | 94 | 1011.1 |
| 20260905075544 | 75 | 254 | 1.0 | 3.0 | 0.00 | 0.02 | 0.00 | 94 | 1011.2 |
| 20260905075040 | 75 | 256 | 0.0 | 2.0 | 0.00 | 0.02 | 0.00 | 94 | 1011.3 |
| 20260905074540 | 75 | 292 | 1.0 | 3.0 | 0.00 | 0.02 | 0.00 | 94 | 1011.4 |
| 20260905074041 | 75 | 257 | 1.0 | 3.0 | 0.00 | 0.02 | 0.00 | 94 | 1011.4 |
| 20260905073541 | 75 | 266 | 1.0 | 5.0 | 0.00 | 0.02 | 0.00 | 93 | 1011.3 |
| 20260905073040 | 74 | 274 | 3.0 | 6.0 | 0.00 | 0.02 | 0.00 | 93 | 1011.1 |
| 20260905072541 | 74 | 266 | 2.0 | 6.0 | 0.00 | 0.02 | 0.00 | 93 | 1011.1 |
| 20260905072040 | 74 | 276 | 2.0 | 5.0 | 0.00 | 0.02 | 0.00 | 93 | 1011.1 |
| 20260905071540 | 74 | 263 | 0.0 | 3.0 | 0.00 | 0.02 | 0.00 | 93 | 1011.1 |
| 20260905071040 | 74 | 263 | 0.0 | 3.0 | 0.00 | 0.02 | 0.00 | 93 | 1011.2 |
| 20260905070540 | 74 | 259 | 1.0 | 3.0 | 0.00 | 0.02 | 0.00 | 93 | 1011.1 |
| 20260905070041 | 74 | 282 | 0.0 | 3.0 | 0.00 | 0.02 | 0.00 | 92 | 1011.1 |
| 20260905065542 | 74 | 261 | 1.0 | 5.0 | 0.00 | 0.02 | 0.00 | 92 | 1011.2 |
| 20260905065038 | 75 | 252 | 1.0 | 5.0 | 0.00 | 0.02 | 0.00 | 92 | 1011.2 |
| 20260905064540 | 75 | 239 | 2.0 | 5.0 | 0.00 | 0.02 | 0.00 | 92 | 1011.3 |
| 20260905064039 | 74 | 245 | 2.0 | 5.0 | 0.00 | 0.02 | 0.00 | 92 | 1011.5 |
| 20260905063538 | 74 | 248 | 2.0 | 4.0 | 0.00 | 0.02 | 0.00 | 92 | 1011.7 |
| 20260905063038 | 74 | 284 | 1.0 | 4.0 | 0.00 | 0.02 | 0.00 | 93 | 1011.4 |
| 20260905062537 | 74 | 273 | 0.0 | 4.0 | 0.00 | 0.02 | 0.00 | 93 | 1011.4 |
| 20260905062037 | 74 | 248 | 1.0 | 4.0 | 0.00 | 0.02 | 0.00 | 93 | 1011.3 |
| 20260905061539 | 74 | 250 | 1.0 | 4.0 | 0.00 | 0.02 | 0.00 | 93 | 1011.3 |
| 20260905061036 | 74 | 263 | 0.0 | 3.0 | 0.00 | 0.02 | 0.00 | 92 | 1011.4 |
| 20260905060534 | 75 | 263 | 1.0 | 3.0 | 0.00 | 0.02 | 0.00 | 92 | 1011.5 |